Terminal Aerodrome Forecast
Issued by NWS Billings, MT

Home | Current Version | Previous Version | Text Only | Print | Product List | Glossary On
Versions: 1 2 3 4 5 6 7 8 9 10 11 12 13 14 15 16 17 18 19 20 21 22 23 24 25 26 27
000
FTUS45 KBYZ 272320
TAFMLS
TAF
KMLS 272320Z 2800/2824 17013KT P6SM SCT200
     FM280800 19007KT P6SM SKC
     FM281800 26011KT P6SM FEW100=

USA.gov is the U.S. government's official web portal to all federal, state and local government web resources and services.